Location: Eurasberg
(48.3353°N, 11.0839°E)
Time: 20:22:14
(UTC+00:00)

IGS 5A - Pass Details

Date: 18 January 2026
Orbit: 551 x 554 km, 97.4° (Epoch: 8 January)

Event Time Altitude Azimuth Distance (km) Brightness Sun altitude
Rises 05:46:48 0° 6° (N) 2,741 6.8 -11.9°
Reaches altitude 10° 05:49:01 10° 359° (N) 1,841 5.8 -11.5°
Maximum altitude 05:52:44 39° 290° (WNW) 843 3.8 -10.9°
Drops below altitude 10° 05:56:25 10° 221° (SW) 1,828 5.8 -10.4°
Sets 05:58:37 0° 214° (SW) 2,717 6.7 -10.0°
